Terug naar catalogus

STARLINK-33716

ActiefCommunicatieVLEO
NORAD 63486·PAYLOAD·🇺🇸 United States

Gelanceerd Apr 6, 2025 vanaf Cape Canaveral Space Force Station

Loading…

Volgende Passages (komende 24 uur)

TLE

VersSource: CelesTrak SupGP

Epoch: Sep 14, 2026, 22:37 UTC

1 63486C 25070AC  26257.94284722  .00037606  00000+0  13629-2 0  2572
2 63486  43.0018 270.8122 0001056 274.3954  36.9148 15.27541107    18

Volg STARLINK-33716 in realtime met AllMySat

Download on the App Store